| time (UTC) | temp F | wind direction | speed knots | gust knots | rain 1hr in | rain 24hr in | rain mn in | humidity % | barometer mb |
| 20260505230017 | 67 | 206 | 5.2 | 19.1 | 0.00 | 0.00 | 0.00 | 57 | 1005.8 |
| 20260505225602 | 67 | 165 | 7.8 | 19.1 | 0.00 | 0.00 | 0.00 | 56 | 1005.6 |
| 20260505225102 | 67 | 200 | 8.7 | 16.5 | 0.00 | 0.00 | 0.00 | 56 | 1005.6 |
| 20260505224601 | 68 | 166 | 7.0 | 23.5 | 0.00 | 0.00 | 0.00 | 55 | 1003.6 |
| 20260505224101 | 68 | 138 | 8.7 | 23.5 | 0.00 | 0.00 | 0.00 | 54 | 1003.1 |
| 20260505223600 | 68 | 87 | 7.8 | 19.1 | 0.00 | 0.00 | 0.00 | 54 | 1003.0 |
| 20260505223039 | 69 | 149 | 7.0 | 19.1 | 0.00 | 0.00 | 0.00 | 54 | 1002.9 |
| 20260505222539 | 69 | 199 | 4.3 | 18.2 | 0.00 | 0.00 | 0.00 | 53 | 1002.8 |
| 20260505222039 | 69 | 126 | 9.6 | 18.2 | 0.00 | 0.00 | 0.00 | 53 | 1002.7 |
| 20260505221539 | 70 | 110 | 5.2 | 18.2 | 0.00 | 0.00 | 0.00 | 52 | 1002.5 |
| 20260505221017 | 70 | 116 | 5.2 | 18.2 | 0.00 | 0.00 | 0.00 | 52 | 1002.4 |
| 20260505220517 | 70 | 89 | 7.8 | 18.2 | 0.00 | 0.00 | 0.00 | 52 | 1002.4 |
| 20260505220017 | 70 | 143 | 6.1 | 18.2 | 0.00 | 0.00 | 0.00 | 52 | 1002.6 |
| 20260505215516 | 71 | 172 | 7.0 | 19.1 | 0.00 | 0.00 | 0.00 | 52 | 1002.3 |
| 20260505215016 | 70 | 167 | 6.1 | 21.7 | 0.00 | 0.00 | 0.00 | 52 | 1002.3 |
| 20260505214516 | 71 | 118 | 8.7 | 21.7 | 0.00 | 0.00 | 0.00 | 51 | 1002.3 |
| 20260505214015 | 71 | 129 | 7.0 | 20.0 | 0.00 | 0.00 | 0.00 | 51 | 1002.3 |
| 20260505213515 | 71 | 152 | 8.7 | 20.0 | 0.00 | 0.00 | 0.00 | 51 | 1002.2 |
| 20260505213015 | 71 | 156 | 7.8 | 18.2 | 0.00 | 0.00 | 0.00 | 51 | 1002.3 |
| 20260505212514 | 72 | 87 | 6.1 | 21.7 | 0.00 | 0.00 | 0.00 | 50 | 1002.3 |
| 20260505212014 | 72 | 120 | 12.2 | 21.7 | 0.00 | 0.00 | 0.00 | 49 | 1002.3 |
| 20260505211513 | 73 | 116 | 9.6 | 21.7 | 0.00 | 0.00 | 0.00 | 49 | 1002.2 |
| 20260505211013 | 73 | 168 | 6.1 | 13.9 | 0.00 | 0.00 | 0.00 | 49 | 1002.1 |
| 20260505210513 | 73 | 126 | 5.2 | 19.1 | 0.00 | 0.00 | 0.00 | 49 | 1002.1 |
| 20260505210012 | 73 | 139 | 7.8 | 21.7 | 0.00 | 0.00 | 0.00 | 48 | 1002.2 |
| 20260505205512 | 73 | 140 | 11.3 | 21.7 | 0.00 | 0.00 | 0.00 | 48 | 1002.1 |
| 20260505204951 | 74 | 129 | 8.7 | 18.2 | 0.00 | 0.00 | 0.00 | 49 | 1002.1 |
| 20260505204450 | 74 | 96 | 7.0 | 20.9 | 0.00 | 0.00 | 0.00 | 48 | 1002.2 |
| 20260505203950 | 74 | 167 | 9.6 | 20.9 | 0.00 | 0.00 | 0.00 | 48 | 1002.2 |
| 20260505203450 | 75 | 157 | 6.1 | 13.9 | 0.00 | 0.00 | 0.00 | 47 | 1002.2 |
| 20260505202950 | 75 | 57 | 7.0 | 19.1 | 0.00 | 0.00 | 0.00 | 48 | 1002.3 |
| 20260505202449 | 75 | 168 | 6.1 | 19.1 | 0.00 | 0.00 | 0.00 | 47 | 1002.1 |
| 20260505201948 | 75 | 170 | 9.6 | 15.6 | 0.00 | 0.00 | 0.00 | 46 | 1002.1 |
| 20260505201448 | 75 | 170 | 4.3 | 15.6 | 0.00 | 0.00 | 0.00 | 49 | 1002.1 |
| 20260505200948 | 75 | 121 | 8.7 | 20.9 | 0.00 | 0.00 | 0.00 | 48 | 1002.3 |
| 20260505200448 | 75 | 125 | 9.6 | 20.9 | 0.00 | 0.00 | 0.00 | 46 | 1002.3 |
| 20260505200154 | 75 | 123 | 9.6 | 20.0 | 0.00 | 0.00 | 0.00 | 48 | 1002.5 |
| 20260505195948 | 75 | 152 | 9.6 | 20.0 | 0.00 | 0.00 | 0.00 | 46 | 1002.4 |
| 20260505195447 | 76 | 95 | 8.7 | 17.4 | 0.00 | 0.00 | 0.00 | 46 | 1002.5 |
| 20260505194947 | 76 | 127 | 10.4 | 18.2 | 0.00 | 0.00 | 0.00 | 46 | 1002.5 |
| 20260505194638 | 76 | 156 | 11.3 | 21.7 | 0.00 | 0.00 | 0.00 | 45 | 1002.6 |
| 20260505194447 | 76 | 121 | 10.4 | 21.7 | 0.00 | 0.00 | 0.00 | 45 | 1002.6 |
| 20260505193946 | 76 | 114 | 11.3 | 21.7 | 0.00 | 0.00 | 0.00 | 44 | 1002.7 |
| 20260505193446 | 76 | 107 | 9.6 | 20.0 | 0.00 | 0.00 | 0.00 | 44 | 1002.7 |
| 20260505193122 | 76 | 92 | 7.8 | 14.8 | 0.00 | 0.00 | 0.00 | 45 | 1002.8 |
| 20260505192945 | 76 | 154 | 7.0 | 15.6 | 0.00 | 0.00 | 0.00 | 45 | 1002.7 |
| 20260505192403 | 76 | 148 | 7.0 | 20.0 | 0.00 | 0.00 | 0.00 | 46 | 1002.9 |
| 20260505191903 | 76 | 117 | 5.2 | 20.0 | 0.00 | 0.00 | 0.00 | 44 | 1002.7 |
| 20260505191606 | 76 | 44 | 10.4 | 20.0 | 0.00 | 0.00 | 0.00 | 43 | 1002.8 |
| 20260505191402 | 76 | 144 | 8.7 | 20.9 | 0.00 | 0.00 | 0.00 | 44 | 1002.7 |
| 20260505190841 | 77 | 145 | 8.7 | 20.0 | 0.00 | 0.00 | 0.00 | 47 | 1002.8 |
| 20260505190340 | 76 | 131 | 7.0 | 20.0 | 0.00 | 0.00 | 0.00 | 46 | 1002.7 |
| 20260505190041 | 76 | 115 | 7.0 | 18.2 | 0.00 | 0.00 | 0.00 | 46 | 1002.8 |
| 20260505185819 | 76 | 160 | 9.6 | 20.0 | 0.00 | 0.00 | 0.00 | 46 | 1002.8 |
| 20260505185319 | 76 | 127 | 7.0 | 15.6 | 0.00 | 0.00 | 0.00 | 47 | 1002.8 |
| 20260505184757 | 75 | 185 | 8.7 | 18.2 | 0.00 | 0.00 | 0.00 | 47 | 1002.9 |
| 20260505184522 | 75 | 170 | 7.0 | 18.2 | 0.00 | 0.00 | 0.00 | 46 | 1002.9 |
| 20260505184257 | 75 | 154 | 11.3 | 21.7 | 0.00 | 0.00 | 0.00 | 46 | 1003.0 |
| 20260505183714 | 75 | 147 | 12.2 | 21.7 | 0.00 | 0.00 | 0.00 | 46 | 1003.0 |
| 20260505183214 | 75 | 170 | 7.8 | 16.5 | 0.00 | 0.00 | 0.00 | 46 | 1003.0 |
| 20260505183008 | 75 | 79 | 7.8 | 16.5 | 0.00 | 0.00 | 0.00 | 47 | 1003.1 |
| 20260505182714 | 75 | 137 | 6.1 | 21.7 | 0.00 | 0.00 | 0.00 | 47 | 1003.0 |
| 20260505182213 | 75 | 155 | 7.0 | 21.7 | 0.00 | 0.00 | 0.00 | 48 | 1003.1 |
| 20260505181713 | 75 | 139 | 9.6 | 20.0 | 0.00 | 0.00 | 0.00 | 46 | 1003.3 |
| 20260505181213 | 75 | 80 | 8.7 | 20.0 | 0.00 | 0.00 | 0.00 | 47 | 1003.2 |
| 20260505180713 | 75 | 110 | 7.8 | 20.0 | 0.00 | 0.00 | 0.00 | 47 | 1003.2 |
| 20260505180212 | 76 | 143 | 7.0 | 18.2 | 0.00 | 0.00 | 0.00 | 47 | 1003.4 |
| 20260505175651 | 75 | 108 | 8.7 | 19.1 | 0.00 | 0.00 | 0.00 | 45 | 1003.4 |
| 20260505175129 | 75 | 118 | 8.7 | 19.1 | 0.00 | 0.00 | 0.00 | 47 | 1003.6 |
| 20260505174629 | 75 | 152 | 9.6 | 20.9 | 0.00 | 0.00 | 0.00 | 46 | 1003.8 |
| 20260505174046 | 75 | 57 | 11.3 | 23.5 | 0.00 | 0.00 | 0.00 | 46 | 1003.8 |
| 20260505173525 | 75 | 104 | 10.4 | 23.5 | 0.00 | 0.00 | 0.00 | 46 | 1003.8 |
| 20260505173025 | 75 | 59 | 7.0 | 21.7 | 0.00 | 0.00 | 0.00 | 46 | 1003.8 |
| 20260505172504 | 76 | 45 | 5.2 | 15.6 | 0.00 | 0.00 | 0.00 | 48 | 1003.8 |
| 20260505172003 | 76 | 69 | 8.7 | 16.5 | 0.00 | 0.00 | 0.00 | 46 | 1003.8 |
| 20260505171502 | 76 | 45 | 7.0 | 16.5 | 0.00 | 0.00 | 0.00 | 46 | 1003.8 |
| 20260505171002 | 76 | 14 | 5.2 | 17.4 | 0.00 | 0.00 | 0.00 | 46 | 1003.9 |
| 20260505170502 | 75 | 115 | 7.0 | 17.4 | 0.00 | 0.00 | 0.00 | 46 | 1004.1 |
| 20260505170002 | 75 | 116 | 7.0 | 16.5 | 0.00 | 0.00 | 0.00 | 46 | 1004.0 |
| 20260505165501 | 75 | 143 | 7.8 | 20.0 | 0.00 | 0.00 | 0.00 | 47 | 1004.1 |
| 20260505165001 | 74 | 81 | 5.2 | 19.1 | 0.00 | 0.00 | 0.00 | 47 | 1004.3 |
| 20260505164501 | 74 | 111 | 9.6 | 19.1 | 0.00 | 0.00 | 0.00 | 45 | 1004.3 |
| 20260505164000 | 74 | 108 | 8.7 | 17.4 | 0.00 | 0.00 | 0.00 | 46 | 1004.4 |
| 20260505163500 | 74 | 118 | 6.1 | 14.8 | 0.00 | 0.00 | 0.00 | 47 | 1004.5 |
| 20260505163000 | 73 | 146 | 7.0 | 16.5 | 0.00 | 0.00 | 0.00 | 48 | 1004.6 |
| 20260505162459 | 73 | 65 | 7.8 | 16.5 | 0.00 | 0.00 | 0.00 | 46 | 1004.8 |
| 20260505161938 | 74 | 83 | 3.5 | 15.6 | 0.00 | 0.00 | 0.00 | 48 | 1005.0 |
| 20260505161438 | 74 | 87 | 6.1 | 16.5 | 0.00 | 0.00 | 0.00 | 47 | 1004.9 |
| 20260505160937 | 74 | 162 | 5.2 | 13.9 | 0.00 | 0.00 | 0.00 | 47 | 1005.1 |
| 20260505160437 | 74 | 91 | 4.3 | 14.8 | 0.00 | 0.00 | 0.00 | 49 | 1005.2 |
| 20260505153228 | 72 | 104 | 7.0 | 14.8 | 0.00 | 0.00 | 0.00 | 49 | 1006.0 |
| 20260505153136 | 72 | 109 | 6.1 | 14.8 | 0.00 | 0.00 | 0.00 | 47 | 1005.9 |
| 20260505152728 | 72 | 114 | 6.1 | 14.8 | 0.00 | 0.00 | 0.00 | 47 | 1005.9 |
| 20260505152228 | 72 | 91 | 6.1 | 15.6 | 0.00 | 0.00 | 0.00 | 46 | 1005.9 |
| 20260505151728 | 72 | 75 | 9.6 | 15.6 | 0.00 | 0.00 | 0.00 | 47 | 1005.8 |
| 20260505151619 | 72 | 66 | 7.0 | 13.9 | 0.00 | 0.00 | 0.00 | 47 | 1005.8 |
| 20260505151228 | 71 | 64 | 6.1 | 13.9 | 0.00 | 0.00 | 0.00 | 47 | 1005.6 |
| 20260505150727 | 72 | 121 | 7.8 | 13.0 | 0.00 | 0.00 | 0.00 | 46 | 1005.7 |
| 20260505150227 | 71 | 84 | 4.3 | 13.9 | 0.00 | 0.00 | 0.00 | 50 | 1005.9 |
| 20260505140641 | 67 | 22 | 5.2 | 13.9 | 0.00 | 0.00 | 0.00 | 51 | 1005.8 |
| 20260505140141 | 67 | 104 | 7.0 | 15.6 | 0.00 | 0.00 | 0.00 | 51 | 1005.8 |
| 20260505124555 | 63 | 23 | 4.3 | 9.6 | 0.00 | 0.00 | 0.00 | 57 | 1006.6 |
| 20260505124054 | 62 | 351 | 1.7 | 8.7 | 0.00 | 0.00 | 0.00 | 59 | 1006.7 |
| 20260505123554 | 62 | 52 | 4.3 | 8.7 | 0.00 | 0.00 | 0.00 | 59 | 1006.7 |
| 20260505123053 | 61 | 75 | 3.5 | 9.6 | 0.00 | 0.00 | 0.00 | 59 | 1006.6 |
| 20260505122553 | 61 | 85 | 3.5 | 12.2 | 0.00 | 0.00 | 0.00 | 60 | 1006.7 |
| 20260505122053 | 61 | 83 | 6.1 | 16.5 | 0.00 | 0.00 | 0.00 | 59 | 1006.9 |
| 20260505121553 | 61 | 47 | 4.3 | 12.2 | 0.00 | 0.00 | 0.00 | 63 | 1006.9 |
| 20260505121053 | 60 | 83 | 2.6 | 8.7 | 0.00 | 0.00 | 0.00 | 65 | 1006.9 |
| 20260505120552 | 60 | 5 | 3.5 | 12.2 | 0.00 | 0.00 | 0.00 | 63 | 1006.8 |
| 20260505120010 | 59 | 59 | 7.0 | 12.2 | 0.00 | 0.00 | 0.00 | 63 | 1006.7 |
| 20260505115509 | 59 | 47 | 3.5 | 8.7 | 0.00 | 0.00 | 0.00 | 66 | 1006.8 |
| 20260505115009 | 57 | 91 | 1.7 | 8.7 | 0.00 | 0.00 | 0.00 | 70 | 1007.0 |
| 20260505114509 | 56 | 44 | 0.9 | 5.2 | 0.00 | 0.00 | 0.00 | 75 | 1007.0 |
| 20260505114009 | 55 | 156 | 0.9 | 2.6 | 0.00 | 0.00 | 0.00 | 76 | 1006.9 |
| 20260505113447 | 55 | 150 | 0.0 | 5.2 | 0.00 | 0.00 | 0.00 | 76 | 1007.0 |
| 20260505113145 | 55 | 153 | 0.9 | 5.2 | 0.00 | 0.00 | 0.00 | 75 | 1007.1 |
| 20260505112947 | 55 | 124 | 1.7 | 5.2 | 0.00 | 0.00 | 0.00 | 75 | 1007.1 |
| 20260505112446 | 56 | 155 | 2.6 | 5.2 | 0.00 | 0.00 | 0.00 | 73 | 1007.1 |
| 20260505111946 | 55 | 100 | 1.7 | 7.8 | 0.00 | 0.00 | 0.00 | 72 | 1007.0 |
| 20260505111631 | 55 | 90 | 1.7 | 7.8 | 0.00 | 0.00 | 0.00 | 74 | 1007.0 |
| 20260505111446 | 55 | 106 | 2.6 | 7.8 | 0.00 | 0.00 | 0.00 | 74 | 1007.0 |
| 20260505110945 | 54 | 93 | 3.5 | 7.8 | 0.00 | 0.00 | 0.00 | 74 | 1007.0 |
| 20260505110445 | 53 | 5 | 0.9 | 8.7 | 0.00 | 0.00 | 0.00 | 80 | 1007.0 |
| 20260505110109 | 52 | 100 | 2.6 | 8.7 | 0.00 | 0.00 | 0.00 | 80 | 1007.1 |
| 20260505101943 | 46 | 60 | 0.9 | 5.2 | 0.00 | 0.00 | 0.00 | 93 | 1007.0 |
| 20260505101538 | 45 | 60 | 1.7 | 5.2 | 0.00 | 0.00 | 0.00 | 95 | 1007.0 |
| 20260505101442 | 45 | 60 | 1.7 | 5.2 | 0.00 | 0.00 | 0.00 | 95 | 1007.0 |
| 20260505100942 | 44 | 51 | 1.7 | 6.1 | 0.00 | 0.00 | 0.00 | 96 | 1006.9 |
| 20260505100442 | 43 | 22 | 0.9 | 2.6 | 0.00 | 0.00 | 0.00 | 96 | 1006.9 |
| 20260505095941 | 43 | 107 | 0.9 | 3.5 | 0.00 | 0.00 | 0.00 | 97 | 1006.8 |
| 20260505095441 | 43 | 105 | 0.9 | 6.1 | 0.00 | 0.00 | 0.00 | 96 | 1006.9 |
| 20260505094941 | 43 | 87 | 0.0 | 6.1 | 0.00 | 0.00 | 0.00 | 96 | 1006.9 |
| 20260505094440 | 43 | 83 | 0.9 | 3.5 | 0.00 | 0.00 | 0.00 | 97 | 1006.9 |
| 20260505093940 | 43 | 83 | 0.9 | 5.2 | 0.00 | 0.00 | 0.00 | 98 | 1007.0 |
| 20260505093440 | 42 | 72 | 1.7 | 5.2 | 0.00 | 0.00 | 0.00 | 98 | 1006.9 |
| 20260505092940 | 42 | 36 | 0.0 | 3.5 | 0.00 | 0.00 | 0.00 | 98 | 1006.9 |
| 20260505092440 | 41 | 29 | 0.9 | 3.5 | 0.00 | 0.00 | 0.00 | 98 | 1006.8 |
| 20260505091939 | 41 | 20 | 0.9 | 5.2 | 0.00 | 0.00 | 0.00 | 98 | 1006.9 |
| 20260505091439 | 40 | 50 | 0.9 | 5.2 | 0.00 | 0.00 | 0.00 | 98 | 1006.8 |
| 20260505090938 | 40 | 26 | 0.9 | 5.2 | 0.00 | 0.00 | 0.00 | 98 | 1006.9 |
| 20260505090438 | 40 | 72 | 0.0 | 5.2 | 0.00 | 0.00 | 0.00 | 98 | 1006.9 |
| 20260505085938 | 39 | 39 | 0.9 | 3.5 | 0.00 | 0.00 | 0.00 | 97 | 1007.0 |
| 20260505085437 | 39 | 39 | 0.9 | 3.5 | 0.00 | 0.00 | 0.00 | 97 | 1007.0 |
| 20260505084937 | 39 | 33 | 0.0 | 1.7 | 0.00 | 0.00 | 0.00 | 97 | 1007.0 |
| 20260505084437 | 39 | 32 | 0.0 | 0.9 | 0.00 | 0.00 | 0.00 | 97 | 1007.0 |
| 20260505083937 | 39 | 32 | 0.0 | 0.9 | 0.00 | 0.00 | 0.00 | 97 | 1007.0 |
| 20260505083436 | 39 | 32 | 0.0 | 0.9 | 0.00 | 0.00 | 0.00 | 97 | 1007.0 |
| 20260505082936 | 39 | 32 | 0.0 | 0.0 | 0.00 | 0.00 | 0.00 | 97 | 1007.0 |
| 20260505082436 | 39 | 32 | 0.0 | 0.0 | 0.00 | 0.00 | 0.00 | 97 | 1007.1 |
| 20260505081935 | 39 | 32 | 0.0 | 0.0 | 0.00 | 0.00 | 0.00 | 97 | 1007.2 |
| 20260505081353 | 39 | 32 | 0.0 | 0.0 | 0.00 | 0.00 | 0.00 | 97 | 1007.2 |
| 20260505080853 | 39 | 32 | 0.0 | 0.0 | 0.00 | 0.00 | 0.00 | 97 | 1007.3 |
| 20260505080331 | 39 | 32 | 0.0 | 0.0 | 0.00 | 0.00 | 0.00 | 97 | 1007.2 |
| 20260505075831 | 39 | 32 | 0.0 | 0.9 | 0.00 | 0.00 | 0.00 | 97 | 1007.2 |
| 20260505075331 | 39 | 32 | 0.0 | 0.9 | 0.00 | 0.00 | 0.00 | 97 | 1007.3 |
| 20260505074831 | 39 | 32 | 0.0 | 0.9 | 0.00 | 0.00 | 0.00 | 97 | 1007.2 |
| 20260505074330 | 40 | 32 | 0.0 | 0.9 | 0.00 | 0.00 | 0.00 | 97 | 1007.2 |
| 20260505073830 | 40 | 33 | 0.0 | 0.9 | 0.00 | 0.00 | 0.00 | 97 | 1007.1 |
| 20260505073329 | 40 | 33 | 0.0 | 0.9 | 0.00 | 0.00 | 0.00 | 96 | 1007.2 |
| 20260505072829 | 40 | 33 | 0.0 | 0.9 | 0.00 | 0.00 | 0.00 | 96 | 1007.2 |
| 20260505072329 | 40 | 33 | 0.0 | 0.9 | 0.00 | 0.00 | 0.00 | 96 | 1007.2 |
| 20260505071828 | 40 | 33 | 0.0 | 0.9 | 0.00 | 0.00 | 0.00 | 96 | 1007.2 |
| 20260505071654 | 40 | 33 | 0.0 | 0.9 | 0.00 | 0.00 | 0.00 | 96 | 1007.2 |
| 20260505071328 | 40 | 33 | 0.0 | 0.9 | 0.00 | 0.00 | 0.00 | 96 | 1007.1 |
| 20260505070828 | 40 | 33 | 0.0 | 0.9 | 0.00 | 0.00 | 0.00 | 96 | 1007.1 |
| 20260505070327 | 40 | 33 | 0.0 | 0.9 | 0.00 | 0.00 | 0.00 | 96 | 1007.1 |
| 20260505070140 | 40 | 33 | 0.0 | 0.9 | 0.00 | 0.00 | 0.00 | 96 | 1007.2 |
| 20260505065806 | 40 | 33 | 0.0 | 1.7 | 0.00 | 0.00 | 0.00 | 96 | 1007.2 |
| 20260505065306 | 40 | 33 | 0.0 | 1.7 | 0.00 | 0.00 | 0.00 | 96 | 1007.2 |
| 20260505064805 | 40 | 33 | 0.0 | 0.9 | 0.00 | 0.00 | 0.00 | 96 | 1007.1 |
| 20260505064624 | 40 | 33 | 0.0 | 0.9 | 0.00 | 0.00 | 0.00 | 96 | 1007.2 |
| 20260505064305 | 40 | 33 | 0.0 | 0.9 | 0.00 | 0.00 | 0.00 | 96 | 1007.1 |
| 20260505063805 | 40 | 33 | 0.0 | 0.0 | 0.00 | 0.00 | 0.00 | 96 | 1007.2 |
| 20260505063304 | 41 | 33 | 0.0 | 0.0 | 0.00 | 0.00 | 0.00 | 96 | 1007.2 |
| 20260505063058 | 41 | 33 | 0.0 | 0.0 | 0.00 | 0.00 | 0.00 | 96 | 1007.2 |
| 20260505062804 | 41 | 33 | 0.0 | 0.0 | 0.00 | 0.00 | 0.00 | 96 | 1007.2 |
| 20260505062242 | 41 | 33 | 0.0 | 1.7 | 0.00 | 0.00 | 0.00 | 96 | 1007.2 |
| 20260505061721 | 41 | 33 | 0.0 | 1.7 | 0.00 | 0.00 | 0.00 | 96 | 1007.1 |
| 20260505061544 | 41 | 33 | 0.0 | 0.9 | 0.00 | 0.00 | 0.00 | 96 | 1007.1 |
| 20260505061200 | 41 | 33 | 0.0 | 1.7 | 0.00 | 0.00 | 0.00 | 96 | 1007.1 |
| 20260505060639 | 41 | 33 | 0.0 | 1.7 | 0.00 | 0.00 | 0.00 | 96 | 1007.1 |
| 20260505060138 | 41 | 33 | 0.0 | 1.7 | 0.00 | 0.00 | 0.00 | 96 | 1007.1 |
| 20260505055617 | 41 | 33 | 0.0 | 1.7 | 0.00 | 0.00 | 0.00 | 96 | 1007.0 |
| 20260505055116 | 41 | 33 | 0.0 | 2.6 | 0.00 | 0.00 | 0.00 | 96 | 1007.0 |
| 20260505054616 | 41 | 33 | 0.9 | 2.6 | 0.00 | 0.00 | 0.00 | 95 | 1007.1 |
| 20260505054513 | 41 | 33 | 0.9 | 2.6 | 0.00 | 0.00 | 0.00 | 95 | 1007.1 |
| 20260505054055 | 41 | 28 | 0.0 | 1.7 | 0.00 | 0.00 | 0.00 | 95 | 1007.0 |
| 20260505053554 | 41 | 28 | 0.0 | 0.9 | 0.00 | 0.00 | 0.00 | 96 | 1007.1 |
| 20260505053054 | 41 | 28 | 0.0 | 0.9 | 0.00 | 0.00 | 0.00 | 96 | 1007.0 |
| 20260505052554 | 41 | 28 | 0.0 | 0.9 | 0.00 | 0.00 | 0.00 | 96 | 1007.0 |
| 20260505052054 | 41 | 28 | 0.0 | 2.6 | 0.00 | 0.00 | 0.00 | 96 | 1007.0 |
| 20260505051554 | 41 | 28 | 0.0 | 2.6 | 0.00 | 0.00 | 0.00 | 96 | 1006.9 |
| 20260505051053 | 41 | 27 | 0.0 | 1.7 | 0.00 | 0.00 | 0.00 | 96 | 1006.9 |
| 20260505050553 | 41 | 27 | 0.0 | 1.7 | 0.00 | 0.00 | 0.00 | 96 | 1006.9 |
| 20260505041425 | 42 | 27 | 0.0 | 0.9 | 0.00 | 0.00 | 0.00 | 94 | 1006.7 |
| 20260505040925 | 42 | 27 | 0.0 | 0.9 | 0.00 | 0.00 | 0.00 | 94 | 1006.7 |
| 20260505040424 | 42 | 27 | 0.0 | 0.9 | 0.00 | 0.00 | 0.00 | 94 | 1006.7 |
| 20260505035924 | 42 | 27 | 0.0 | 0.9 | 0.00 | 0.00 | 0.00 | 95 | 1006.6 |
| 20260505035424 | 42 | 27 | 0.0 | 0.9 | 0.00 | 0.00 | 0.00 | 94 | 1006.7 |
| 20260505034841 | 42 | 27 | 0.0 | 0.0 | 0.00 | 0.00 | 0.00 | 94 | 1006.6 |
| 20260505034341 | 42 | 27 | 0.0 | 0.9 | 0.00 | 0.00 | 0.00 | 94 | 1006.5 |
| 20260505033841 | 42 | 27 | 0.0 | 0.9 | 0.00 | 0.00 | 0.00 | 94 | 1006.6 |
| 20260505033340 | 43 | 27 | 0.0 | 0.9 | 0.00 | 0.00 | 0.00 | 93 | 1006.5 |
| 20260505032840 | 43 | 27 | 0.0 | 0.0 | 0.00 | 0.00 | 0.00 | 92 | 1006.5 |
| 20260505032340 | 43 | 27 | 0.0 | 0.0 | 0.00 | 0.00 | 0.00 | 93 | 1006.5 |
| 20260505031839 | 43 | 27 | 0.0 | 0.0 | 0.00 | 0.00 | 0.00 | 92 | 1006.5 |
| 20260505031339 | 43 | 27 | 0.0 | 0.0 | 0.00 | 0.00 | 0.00 | 92 | 1006.5 |
| 20260505030839 | 43 | 27 | 0.0 | 0.0 | 0.00 | 0.00 | 0.00 | 92 | 1006.5 |
| 20260505030339 | 43 | 27 | 0.0 | 0.9 | 0.00 | 0.00 | 0.00 | 92 | 1006.6 |
| 20260505025838 | 44 | 27 | 0.0 | 0.9 | 0.00 | 0.00 | 0.00 | 93 | 1006.6 |
| 20260505025338 | 44 | 27 | 0.0 | 0.9 | 0.00 | 0.00 | 0.00 | 93 | 1006.8 |
| 20260505024838 | 44 | 27 | 0.0 | 0.0 | 0.00 | 0.00 | 0.00 | 92 | 1006.8 |
| 20260505024648 | 44 | 27 | 0.0 | 0.0 | 0.00 | 0.00 | 0.00 | 91 | 1006.8 |
| 20260505024317 | 44 | 27 | 0.0 | 0.0 | 0.00 | 0.00 | 0.00 | 90 | 1006.8 |
| 20260505023816 | 44 | 27 | 0.0 | 0.9 | 0.00 | 0.00 | 0.00 | 90 | 1006.8 |
| 20260505023316 | 45 | 27 | 0.0 | 0.9 | 0.00 | 0.00 | 0.00 | 90 | 1006.8 |
| 20260505023134 | 45 | 27 | 0.0 | 0.9 | 0.00 | 0.00 | 0.00 | 90 | 1006.8 |
| 20260505022816 | 45 | 27 | 0.0 | 0.0 | 0.00 | 0.00 | 0.00 | 90 | 1006.9 |
| 20260505022316 | 45 | 27 | 0.0 | 0.0 | 0.00 | 0.00 | 0.00 | 89 | 1006.9 |
| 20260505021815 | 45 | 27 | 0.0 | 0.0 | 0.00 | 0.00 | 0.00 | 87 | 1006.8 |
| 20260505021607 | 46 | 27 | 0.0 | 0.9 | 0.00 | 0.00 | 0.00 | 87 | 1006.9 |
| 20260505021315 | 46 | 27 | 0.0 | 0.9 | 0.00 | 0.00 | 0.00 | 87 | 1006.8 |
| 20260505020815 | 46 | 27 | 0.0 | 1.7 | 0.00 | 0.00 | 0.00 | 87 | 1006.7 |
| 20260505020315 | 46 | 27 | 0.0 | 1.7 | 0.00 | 0.00 | 0.00 | 86 | 1006.9 |
| 20260505020055 | 46 | 27 | 0.0 | 2.6 | 0.00 | 0.00 | 0.00 | 85 | 1006.9 |
| 20260505015815 | 46 | 27 | 0.0 | 2.6 | 0.00 | 0.00 | 0.00 | 85 | 1006.8 |
| 20260505015314 | 46 | 28 | 0.9 | 1.7 | 0.00 | 0.00 | 0.00 | 86 | 1006.8 |
| 20260505014814 | 46 | 31 | 0.0 | 1.7 | 0.00 | 0.00 | 0.00 | 84 | 1006.8 |
| 20260505014540 | 47 | 31 | 0.0 | 1.7 | 0.00 | 0.00 | 0.00 | 84 | 1006.8 |
| 20260505014314 | 47 | 31 | 0.0 | 2.6 | 0.00 | 0.00 | 0.00 | 85 | 1006.8 |
| 20260505013813 | 47 | 32 | 0.9 | 2.6 | 0.00 | 0.00 | 0.00 | 86 | 1006.7 |
| 20260505013252 | 46 | 32 | 0.9 | 1.7 | 0.00 | 0.00 | 0.00 | 85 | 1006.7 |
| 20260505013025 | 46 | 32 | 0.9 | 1.7 | 0.00 | 0.00 | 0.00 | 86 | 1006.7 |
| 20260505012752 | 46 | 32 | 0.9 | 1.7 | 0.00 | 0.00 | 0.00 | 88 | 1006.7 |
| 20260505012252 | 46 | 33 | 0.0 | 0.9 | 0.00 | 0.00 | 0.00 | 88 | 1006.8 |
| 20260505011709 | 46 | 32 | 0.0 | 2.6 | 0.00 | 0.00 | 0.00 | 87 | 1006.6 |
| 20260505011501 | 46 | 33 | 0.0 | 2.6 | 0.00 | 0.00 | 0.00 | 87 | 1006.6 |
| 20260505011209 | 47 | 32 | 1.7 | 2.6 | 0.00 | 0.00 | 0.00 | 88 | 1006.5 |
| 20260505010709 | 47 | 60 | 0.0 | 0.9 | 0.00 | 0.00 | 0.00 | 87 | 1006.4 |
| 20260505010208 | 47 | 60 | 0.0 | 1.7 | 0.00 | 0.00 | 0.00 | 87 | 1006.3 |
| 20260505005708 | 47 | 60 | 0.0 | 2.6 | 0.00 | 0.00 | 0.00 | 85 | 1006.3 |
| 20260505005208 | 48 | 60 | 0.9 | 2.6 | 0.00 | 0.00 | 0.00 | 84 | 1006.3 |
| 20260505004707 | 48 | 96 | 0.9 | 2.6 | 0.00 | 0.00 | 0.00 | 84 | 1006.2 |
| 20260505004146 | 48 | 99 | 0.9 | 1.7 | 0.00 | 0.00 | 0.00 | 84 | 1006.1 |
| 20260505003646 | 49 | 100 | 0.0 | 1.7 | 0.00 | 0.00 | 0.00 | 85 | 1006.0 |
| 20260505003124 | 49 | 100 | 0.0 | 0.9 | 0.00 | 0.00 | 0.00 | 82 | 1005.9 |
| 20260505002624 | 49 | 100 | 0.0 | 0.9 | 0.00 | 0.00 | 0.00 | 82 | 1005.7 |
| 20260505002124 | 50 | 100 | 0.0 | 1.7 | 0.00 | 0.00 | 0.00 | 82 | 1005.7 |
| 20260505001623 | 50 | 100 | 0.9 | 1.7 | 0.00 | 0.00 | 0.00 | 81 | 1005.7 |
| 20260505001123 | 50 | 102 | 0.0 | 0.9 | 0.00 | 0.00 | 0.00 | 80 | 1005.6 |
| 20260505000623 | 50 | 102 | 0.0 | 0.9 | 0.00 | 0.00 | 0.00 | 80 | 1005.6 |
| 20260505000122 | 50 | 102 | 0.0 | 0.9 | 0.00 | 0.00 | 0.00 | 82 | 1005.5 |
| 20260504235540 | 51 | 102 | 0.0 | 0.0 | 0.00 | 0.00 | 0.00 | 80 | 1005.6 |
| 20260504235040 | 51 | 102 | 0.0 | 0.9 | 0.00 | 0.00 | 0.00 | 79 | 1005.6 |
| 20260504234539 | 52 | 102 | 0.0 | 0.9 | 0.00 | 0.00 | 0.00 | 78 | 1005.5 |
| 20260504234039 | 53 | 102 | 0.0 | 0.9 | 0.00 | 0.00 | 0.00 | 76 | 1005.4 |
| 20260504233539 | 53 | 102 | 0.0 | 0.0 | 0.00 | 0.00 | 0.00 | 77 | 1005.3 |
| 20260504233039 | 54 | 102 | 0.0 | 0.0 | 0.00 | 0.00 | 0.00 | 75 | 1005.3 |
| 20260504232538 | 55 | 103 | 0.0 | 0.0 | 0.00 | 0.00 | 0.00 | 73 | 1005.3 |
| 20260504232038 | 55 | 103 | 0.0 | 0.9 | 0.00 | 0.00 | 0.00 | 71 | 1005.2 |
| 20260504231538 | 56 | 103 | 0.0 | 1.7 | 0.00 | 0.00 | 0.00 | 68 | 1005.1 |
| 20260504231037 | 57 | 103 | 0.0 | 1.7 | 0.00 | 0.00 | 0.00 | 66 | 1005.1 |
| 20260504230537 | 58 | 102 | 0.0 | 2.6 | 0.00 | 0.00 | 0.00 | 65 | 1005.1 |